Torna al catalogo

STARLINK-4178

AttivoComunicazioniVLEO
NORAD 53277·PAYLOAD·🇺🇸 United States

Lanciato Jul 24, 2022 da Cape Canaveral Space Force Station

Loading…

Prossimi Passaggi (prossime 24 ore)

TLE

AggiornatoSource: CelesTrak SupGP

Epoca: Sep 15, 2026, 01:42 UTC

1 53277C 22086AM  26258.07131944 -.00036018  00000+0 -11586-2 0  2584
2 53277  53.1593  41.6352 0001120  83.5334 220.9129 15.31710126    16

Traccia STARLINK-4178 in tempo reale con AllMySat

Download on the App Store